Overview Statistics Trail Chart Weather Telemetry Raw packets
 

This is the latest recevied weather packets stored in our database for station/object KN6WGU. If no packets are shown the sender has not sent any weather packets the latest 10 day(s).

<< 80 81 82 83 84 85 86 >>
Time Temp. Humidity Pressure Rain* Wind** Luminosity Snow
1788030232 30° C 44% 1014.4 hPa 0 mm - 643 W/m² -
1788029927 29.44° C 47% 1014.3 hPa 0 mm - 630 W/m² -
1788029622 28.89° C 46% 1014.5 hPa 0 mm - 618 W/m² -
1788029318 28.89° C 47% 1014.6 hPa 0 mm - 487 W/m² -
1788029016 30° C 51% 1014.7 hPa 0 mm - 457 W/m² -
1788028716 29.44° C 47% 1014.9 hPa 0 mm - 451 W/m² -
1788028410 28.89° C 49% 1014.9 hPa 0 mm - 616 W/m² -
1788028107 27.78° C 50% 1015 hPa 0 mm - 674 W/m² -
1788027801 28.33° C 49% 1015 hPa 0 mm - 162 W/m² -
1788027501 28.33° C 48% 1015.1 hPa 0 mm - 734 W/m² -
1788027196 28.33° C 52% 1014.9 hPa 0 mm - 724 W/m² -
1788026895 28.89° C 50% 1015 hPa 0 mm - 180 W/m² -
1788026590 28.89° C 50% 1015.1 hPa 0 mm - 675 W/m² -
1788026285 28.33° C 51% 1015.2 hPa 0 mm - 711 W/m² -
1788025981 27.22° C 52% 1015.1 hPa 0 mm - 665 W/m² -
1788025679 27.22° C 49% 1015.3 hPa 0 mm - 604 W/m² -
1788025379 27.22° C 53% 1015.4 hPa 0 mm - 592 W/m² -
1788025075 27.22° C 52% 1015.5 hPa 0 mm - 88 W/m² -
1788024774 26.67° C 51% 1015.5 hPa 0 mm - 282 W/m² -
1788024470 26.67° C 54% 1015.4 hPa 0 mm - 643 W/m² -
1788024169 26.67° C 52% 1015.6 hPa 0 mm - 222 W/m² -
1788023865 26.67° C 55% 1015.7 hPa 0 mm - 134 W/m² -
1788023561 26.67° C 55% 1015.7 hPa 0 mm - 96 W/m² -
1788023255 26.67° C 54% 1015.6 hPa 0 mm - 94 W/m² -
1788022950 26.11° C 55% 1015.9 hPa 0 mm - 185 W/m² -

* Rain latest hour (hover to see other rain measurements)
** Current wind speed in m/s (hover to see current wind gust speed)